When you browse on this site, cookies collect data to enhance your experience and personalize the content and advertising you see.
Visit our Privacy Policy to learn more. By continuing to use the site, you agree to this use of cookies and data.
  • In France
  • List of Countries
  • For 7 days
  • Water Temperature
  • Weather Map
  • Weather Widgets
  • user-avatar
    Login

    Hourly Weather La Rioja

    Today, 1 April, Wednesday

    Time Temperature Precipitation Wind Pressure Humidity
    00:00 +23°C° 0 mm 1 mps 714 mmHg 91%
    01:00 +23°C° 0 mm 1 mps 714 mmHg 91%
    02:00 +23°C° 0 mm 1 mps 714 mmHg 91%
    03:00 +23°C° 0 mm 1 mps 713 mmHg 91%
    04:00 +23°C° 0 mm 1 mps 713 mmHg 92%
    05:00 +23°C° 0 mm 1 mps 713 mmHg 92%
    06:00 +23°C° 0 mm 1 mps 714 mmHg 91%
    07:00 +23°C° 0 mm 1 mps 714 mmHg 90%
    08:00 +24°C° 0 mm 1 mps 714 mmHg 89%
    09:00 +25°C° 0 mm 2 mps 715 mmHg 85%
    10:00 +26°C° 0 mm 2 mps 715 mmHg 81%
    11:00 +26°C° 0 mm 2 mps 715 mmHg 77%
    12:00 +27°C° 0.1 mm 2 mps 715 mmHg 74%
    13:00 +28°C° 0.1 mm 3 mps 715 mmHg 71%
    14:00 +29°C° 0.1 mm 3 mps 715 mmHg 68%
    15:00 +29°C° 0.2 mm 3 mps 715 mmHg 69%
    16:00 +28°C° 0.2 mm 3 mps 715 mmHg 69%
    17:00 +28°C° 0.2 mm 4 mps 715 mmHg 70%
    18:00 +27°C° 0.3 mm 4 mps 716 mmHg 72%
    19:00 +26°C° 0.3 mm 5 mps 717 mmHg 75%
    20:00 +24°C° 0.3 mm 6 mps 718 mmHg 77%
    21:00 +24°C° 0 mm 6 mps 718 mmHg 77%
    22:00 +23°C° 0 mm 5 mps 719 mmHg 77%
    23:00 +23°C° 0 mm 5 mps 720 mmHg 77%

    Tomorrow, 2 April, Thursday

    Time Temperature Precipitation Wind Pressure Humidity
    00:00 +23°C° 0.1 mm 5 mps 720 mmHg 76%
    01:00 +22°C° 0.1 mm 4 mps 720 mmHg 76%
    02:00 +22°C° 0.1 mm 4 mps 721 mmHg 76%
    03:00 +22°C° 0.1 mm 4 mps 721 mmHg 76%
    04:00 +22°C° 0.1 mm 4 mps 721 mmHg 76%
    05:00 +22°C° 0.1 mm 4 mps 721 mmHg 77%
    06:00 +21°C° 0 mm 4 mps 721 mmHg 76%
    07:00 +21°C° 0 mm 4 mps 722 mmHg 76%
    08:00 +21°C° 0 mm 3 mps 722 mmHg 75%
    09:00 +22°C° 0 mm 3 mps 722 mmHg 71%
    10:00 +22°C° 0 mm 3 mps 723 mmHg 67%
    11:00 +24°C° 0 mm 3 mps 723 mmHg 64%
    12:00 +24°C° 0 mm 3 mps 722 mmHg 63%
    13:00 +24°C° 0 mm 3 mps 722 mmHg 62%
    14:00 +24°C° 0 mm 3 mps 721 mmHg 62%
    15:00 +24°C° 0 mm 3 mps 721 mmHg 63%
    16:00 +24°C° 0 mm 3 mps 720 mmHg 64%
    17:00 +24°C° 0 mm 2 mps 720 mmHg 66%
    18:00 +24°C° 0 mm 2 mps 720 mmHg 68%
    19:00 +23°C° 0 mm 2 mps 720 mmHg 71%
    20:00 +22°C° 0 mm 1 mps 720 mmHg 74%
    21:00 +22°C° 0 mm 1 mps 720 mmHg 75%
    22:00 +22°C° 0 mm 1 mps 720 mmHg 75%
    23:00 +22°C° 0 mm 1 mps 720 mmHg 76%

    Day after tomorrow, 3 April, Friday

    Time Temperature Precipitation Wind Pressure Humidity
    00:00 +21°C° 0 mm 1 mps 719 mmHg 78%
    01:00 +21°C° 0 mm 1 mps 719 mmHg 80%
    02:00 +20°C° 0 mm 1 mps 718 mmHg 82%
    03:00 +18°C° 0 mm 0 mps 717 mmHg 84%
    04:00 +17°C° 0 mm 0 mps 717 mmHg 86%
    05:00 +17°C° 0 mm 0 mps 716 mmHg 88%
    06:00 +18°C° 0 mm 0 mps 717 mmHg 84%
    07:00 +20°C° 0 mm 1 mps 717 mmHg 81%
    08:00 +21°C° 0 mm 1 mps 717 mmHg 77%
    09:00 +23°C° 0 mm 1 mps 716 mmHg 72%
    10:00 +24°C° 0 mm 2 mps 716 mmHg 66%
    11:00 +25°C° 0 mm 2 mps 716 mmHg 60%
    12:00 +26°C° 0 mm 2 mps 715 mmHg 58%
    13:00 +27°C° 0 mm 2 mps 714 mmHg 55%
    14:00 +28°C° 0 mm 3 mps 713 mmHg 53%
    15:00 +28°C° 0 mm 3 mps 713 mmHg 52%
    16:00 +28°C° 0 mm 3 mps 712 mmHg 51%
    17:00 +28°C° 0 mm 3 mps 711 mmHg 51%
    18:00 +27°C° 0 mm 2 mps 711 mmHg 56%
    19:00 +25°C° 0 mm 2 mps 711 mmHg 61%
    20:00 +24°C° 0 mm 2 mps 711 mmHg 66%
    21:00 +23°C° 0 mm 1 mps 711 mmHg 68%
    22:00 +23°C° 0 mm 1 mps 711 mmHg 71%
    23:00 +20°C° 0 mm 0 mps 711 mmHg 73%

    4 April, Saturday

    Time Temperature Precipitation Wind Pressure Humidity
    00:00 +22°C° 0 mm 1 mps 711 mmHg 74%
    01:00 +21°C° 0 mm 1 mps 710 mmHg 75%
    02:00 +21°C° 0 mm 1 mps 710 mmHg 76%
    03:00 +20°C° 0 mm 1 mps 710 mmHg 77%
    04:00 +20°C° 0 mm 1 mps 710 mmHg 78%
    05:00 +18°C° 0 mm 2 mps 710 mmHg 78%
    06:00 +19°C° 0 mm 2 mps 710 mmHg 76%
    07:00 +19°C° 0 mm 2 mps 711 mmHg 73%
    08:00 +20°C° 0 mm 3 mps 711 mmHg 70%
    09:00 +21°C° 0 mm 3 mps 711 mmHg 65%
    10:00 +24°C° 0 mm 3 mps 712 mmHg 60%
    11:00 +25°C° 0 mm 3 mps 712 mmHg 55%
    12:00 +26°C° 0 mm 3 mps 712 mmHg 52%
    13:00 +27°C° 0 mm 3 mps 711 mmHg 50%
    14:00 +28°C° 0 mm 2 mps 711 mmHg 48%
    15:00 +28°C° 0 mm 2 mps 710 mmHg 48%
    16:00 +28°C° 0 mm 2 mps 710 mmHg 48%
    17:00 +27°C° 0 mm 2 mps 709 mmHg 49%
    18:00 +26°C° 0 mm 1 mps 709 mmHg 52%
    19:00 +25°C° 0 mm 1 mps 710 mmHg 56%
    20:00 +24°C° 0 mm 1 mps 710 mmHg 60%
    21:00 +24°C° 0 mm 1 mps 710 mmHg 61%
    22:00 +23°C° 0 mm 1 mps 710 mmHg 62%
    23:00 +23°C° 0 mm 1 mps 709 mmHg 63%

    5 April, Sunday

    Time Temperature Precipitation Wind Pressure Humidity
    00:00 +23°C° 0 mm 1 mps 709 mmHg 65%
    01:00 +22°C° 0 mm 1 mps 709 mmHg 67%
    02:00 +22°C° 0 mm 1 mps 709 mmHg 68%
    03:00 +22°C° 0 mm 1 mps 708 mmHg 70%
    04:00 +20°C° 0 mm 2 mps 708 mmHg 71%
    05:00 +20°C° 0 mm 2 mps 708 mmHg 73%
    06:00 +21°C° 0 mm 2 mps 708 mmHg 71%
    07:00 +21°C° 0 mm 2 mps 709 mmHg 68%
    08:00 +23°C° 0 mm 2 mps 709 mmHg 66%
    09:00 +24°C° 0 mm 2 mps 709 mmHg 62%
    10:00 +26°C° 0 mm 2 mps 710 mmHg 58%
    11:00 +27°C° 0 mm 3 mps 710 mmHg 54%
    12:00 +28°C° 0 mm 2 mps 709 mmHg 52%
    13:00 +29°C° 0 mm 2 mps 709 mmHg 50%
    14:00 +30°C° 0 mm 2 mps 709 mmHg 48%
    15:00 +30°C° 0 mm 2 mps 708 mmHg 48%
    16:00 +30°C° 0 mm 2 mps 708 mmHg 48%
    17:00 +30°C° 0 mm 2 mps 708 mmHg 48%
    18:00 +29°C° 0 mm 2 mps 709 mmHg 53%
    19:00 +27°C° 0 mm 2 mps 709 mmHg 57%
    20:00 +26°C° 0 mm 2 mps 710 mmHg 61%
    21:00 +26°C° 0 mm 2 mps 711 mmHg 62%
    22:00 +25°C° 0 mm 2 mps 711 mmHg 62%
    23:00 +25°C° 0 mm 2 mps 712 mmHg 63%

    6 April, Monday

    Time Temperature Precipitation Wind Pressure Humidity
    00:00 +25°C° 0 mm 2 mps 713 mmHg 64%
    01:00 +25°C° 0 mm 3 mps 713 mmHg 66%
    02:00 +24°C° 0 mm 3 mps 714 mmHg 68%
    03:00 +24°C° 0 mm 3 mps 714 mmHg 69%
    04:00 +23°C° 0 mm 2 mps 715 mmHg 71%
    05:00 +23°C° 0 mm 2 mps 715 mmHg 72%
    06:00 +24°C° 0.1 mm 2 mps 716 mmHg 69%
    07:00 +24°C° 0.1 mm 2 mps 717 mmHg 65%
    08:00 +25°C° 0.1 mm 2 mps 719 mmHg 61%
    09:00 +25°C° 0.4 mm 3 mps 719 mmHg 60%
    10:00 +25°C° 0.4 mm 4 mps 720 mmHg 59%
    11:00 +25°C° 0.4 mm 5 mps 720 mmHg 58%
    12:00 +23°C° 0.1 mm 5 mps 720 mmHg 57%
    13:00 +22°C° 0.1 mm 4 mps 719 mmHg 55%
    14:00 +22°C° 0.1 mm 4 mps 719 mmHg 54%
    15:00 +22°C° 0 mm 4 mps 719 mmHg 54%
    16:00 +22°C° 0 mm 3 mps 718 mmHg 54%
    17:00 +22°C° 0 mm 3 mps 718 mmHg 53%
    18:00 +22°C° 0 mm 3 mps 719 mmHg 53%
    19:00 +23°C° 0 mm 2 mps 719 mmHg 54%
    20:00 +23°C° 0 mm 2 mps 720 mmHg 54%
    21:00 +21°C° 0 mm 2 mps 720 mmHg 53%
    22:00 +21°C° 0 mm 2 mps 721 mmHg 51%
    23:00 +21°C° 0 mm 2 mps 721 mmHg 50%
    Show more